Other Surface Observations
Issued by NWS Missoula, MT

Home | Current Version | Previous Version | Text Only | Print | Product List | Glossary On
Versions: 1 2 3 4 5 6 7 8 9 10 11 12 13 14 15 16 17 18 19 20 21 22 23 24 25 26 27 28 29 30 31 32 33 34 35 36 37 38 39 40 41 42 43 44 45 46 47 48 49 50
000
SXUS55 KMSO 232023
OSOMSO
MONTANA AWOS SUMMARY
NATIONAL WEATHER SERVICE MISSOULA MT
123 PM MST SUN APR 23 2017

Montana AWOS Reports

LAUREL      |K6S8 232015Z AUTO 17008KT 3SM HZ 19/02 A2970 RMK AO1 T01890017
ROUNDUP     |KRPX 232015Z AUTO 00000KT 40SM 17/01 A2962 RMK AO1 T01670006




USA.gov is the U.S. government's official web portal to all federal, state and local government web resources and services.